Location: Celina Division
(33.3022°N, 96.7580°W)
Time: 01:25:18
(UTC+00:00)

Nadezhda 4 Rocket - Pass Details

Date: 10 July 2022
Orbit: 950 x 991 km, 82.9° (Epoch: 17 August)

Event Time Altitude Azimuth Distance (km) Brightness Sun altitude
Rises 10:07:50 0° 155° (SSE) 3,638 6.8 -14.4°
Reaches altitude 10° 10:10:40 10° 144° (SE) 2,689 6.3 -14.0°
Maximum altitude 10:15:47 29° 87° (E) 1,694 5.9 -13.1°
Drops below altitude 10° 10:20:54 10° 31° (NNE) 2,683 7.5 -12.3°
Sets 10:23:42 0° 20° (NNE) 3,629 8.0 -11.8°
